Flag for France Weather past 2 weeks in Rouen, France

54 °F

Partly sunny.

Feels Like: 48 °F
Forecast: 53 / 54 °F
Wind: 21 mph from Southwest

Location: Rouen Airport

Current Time: Nov 29, 2015 at 5:00:06 PM

Latest Report: Nov 29, 2015 at 4:30 PM

Visibility: N/A

Pressure: 30.07 "Hg

Humidity: 72%

Dew point: 45 °F

Location of RouenLocation

Historic Weather in Rouen — Graph


Rouen temperature yesterday

Maximum temperature yesterday: 48 °F (at 12:30 PM)
Minimum temperature yesterday: 36 °F (at 8:30 AM)
Average temperature yesterday: 44 °F

Past Weeks' High & Low Weather Summary

High63 °F (Nov 15, 2:00 PM)100% (Nov 17, 3:00 AM)30.33 "Hg (Nov 17, 3:00 AM)
Low30 °F (Nov 22, 8:00 AM)53% (Nov 22, 12:00 PM)29.56 "Hg (Nov 21, 5:00 AM)
Average47 °F84%29.99 "Hg
* Reported Nov 14 3:00 PM — Nov 29 3:30 PM, Rouen, Weather by CustomWeather, © 2015

Note: Actual official high and low records may vary slightly from our data, if they occured in-between our weather recording intervals... More about our weather records


Rouen weather history for previous 24 hours

Time TempWeatherWind HumidityBarometerVisibility
3:30 PM
Sun, Nov 29
54 °FMostly cloudy.20 mph72%30.07 "HgN/A
3:00 PM54 °FMostly cloudy.18 mph72%30.07 "HgN/A
2:30 PM52 °FMore clouds than sun.15 mph77%30.04 "HgN/A
2:00 PM52 °FLight rain. Overcast.15 mph77%30.04 "HgN/A
1:30 PM52 °FPartly sunny.18 mph77%30.04 "HgN/A
1:00 PM52 °FBroken clouds.17 mph82%30.04 "HgN/A
12:30 PM52 °FLight rain. Overcast.22 mph82%30.07 "HgN/A
12:00 PM52 °FBroken clouds.21 mph82%30.04 "HgN/A
11:30 AM52 °FMore clouds than sun.22 mph82%30.04 "HgN/A
10:30 AM50 °FOvercast.18 mph94%30.04 "HgN/A
10:00 AM50 °FLight rain. Mostly cloudy.17 mph94%30.04 "HgN/A
9:30 AM50 °FLight rain. Mostly cloudy.17 mph88%30.04 "HgN/A
9:00 AM50 °FOvercast.18 mph88%30.01 "HgN/A
7:30 AM50 °FMostly cloudy.20 mph88%30.01 "HgN/A
6:00 AM50 °FMostly cloudy.21 mph88%29.95 "HgN/A
5:30 AM50 °FOvercast.21 mph88%29.95 "HgN/A
5:00 AM50 °FOvercast.18 mph88%29.95 "HgN/A
4:30 AM50 °FOvercast.18 mph88%29.95 "HgN/A
4:00 AM50 °FOvercast.18 mph82%29.95 "HgN/A
3:30 AM50 °FOvercast.21 mph82%29.95 "HgN/A
3:00 AM50 °FMostly cloudy.18 mph82%29.95 "HgN/A
2:30 AM48 °FOvercast.17 mph87%29.95 "HgN/A
2:00 AM48 °FMostly cloudy.18 mph87%29.95 "HgN/A
1:30 AM48 °FOvercast.18 mph82%29.95 "HgN/A
1:00 AM48 °FOvercast.18 mph82%29.95 "HgN/A
12:30 AM48 °FLight rain. Overcast.20 mph82%29.95 "HgN/A
12:00 AM46 °FDrizzle. Overcast.18 mph87%29.98 "HgN/A
11:00 PM
Sat, Nov 28
46 °FLight rain. Mostly cloudy.21 mph82%29.98 "HgN/A
10:30 PM46 °FMostly cloudy.21 mph82%29.98 "HgN/A
10:00 PM46 °FOvercast.20 mph82%29.98 "HgN/A
9:30 PM46 °FOvercast.21 mph76%29.98 "HgN/A
9:00 PM46 °FMostly cloudy.22 mph76%30.01 "HgN/A
8:30 PM46 °FMostly cloudy.21 mph76%30.01 "HgN/A
8:00 PM46 °FPassing clouds.18 mph71%30.01 "HgN/A
7:30 PM45 °FPassing clouds.20 mph76%30.01 "HgN/A
7:00 PM45 °FMostly cloudy.18 mph76%30.04 "HgN/A
6:30 PM45 °FMostly cloudy.18 mph76%30.04 "HgN/A
6:00 PM45 °FMostly cloudy.18 mph76%30.04 "HgN/A
5:30 PM45 °FPartly cloudy.17 mph76%30.04 "HgN/A
5:00 PM45 °FClear.17 mph76%30.04 "Hg10 mi
Weather by CustomWeather, © 2015

See weather overviewHow to use our weather pages